FW0675 Weather Reports


time (UTC)temp
C
wind
direction
speed
KPH
gust
KPH
rain 1hr
cm
rain 24hr
cm
rain mn
cm
humidity
%
barometer
mb
20260503225741 32 334 0.0 0.0 0.00 0.00 0.00 34 1008.8
20260503224241 33 300 0.0 0.0 0.00 0.00 0.00 38 1009.0
20260503223241 32 321 0.0 0.0 0.00 0.00 0.00 33 1009.0
20260503222241 32 335 0.0 0.0 0.00 0.00 0.00 31 1009.3
20260503221742 32 250 0.0 0.0 0.00 0.00 0.00 30 1009.3
20260503220241 32 119 0.0 0.0 0.00 0.00 0.00 30 1009.4
20260503215742 32 348 0.0 0.0 0.00 0.00 0.00 32 1009.5
20260503212742 32 282 0.0 0.0 0.00 0.00 0.00 34 1009.8
20260503212241 31 219 0.0 0.0 0.00 0.00 0.00 35 1009.8
20260503211742 31 109 0.0 0.0 0.00 0.00 0.00 36 1009.8
20260503211240 31 105 0.0 0.0 0.00 0.00 0.00 36 1009.9
20260503210742 31 290 0.0 0.0 0.00 0.00 0.00 42 1010.1
20260503210241 30 302 0.0 0.0 0.00 0.00 0.00 36 1010.0
20260503205741 30 127 0.0 0.0 0.00 0.00 0.00 38 1010.0
20260503205240 30 306 0.0 0.0 0.00 0.00 0.00 39 1010.2
20260503204742 30 257 0.0 0.0 0.00 0.00 0.00 37 1010.1
20260503204240 30 162 0.0 0.0 0.00 0.00 0.00 41 1010.2
20260503203740 30 123 0.0 0.0 0.00 0.00 0.00 37 1010.3
20260503203242 30 41 0.0 0.0 0.00 0.00 0.00 42 1010.4
20260503202240 30 99 0.0 0.0 0.00 0.00 0.00 41 1010.4
20260503201741 30 281 0.0 0.0 0.00 0.00 0.00 36 1010.5
20260503201240 30 112 0.0 0.0 0.00 0.00 0.00 41 1010.5
20260503200742 30 83 0.0 0.0 0.00 0.00 0.00 39 1010.6
20260503200241 30 122 0.0 0.0 0.00 0.00 0.00 37 1010.7
20260503195740 30 121 0.0 0.0 0.00 0.00 0.00 40 1010.8
20260503195241 30 217 0.0 0.0 0.00 0.00 0.00 36 1010.9
20260503194742 30 204 0.0 0.0 0.00 0.00 0.00 36 1011.0
20260503194241 30 259 0.0 0.0 0.00 0.00 0.00 35 1011.0
20260503193742 30 59 0.0 0.0 0.00 0.00 0.00 38 1011.0
20260503193241 30 9 0.0 0.0 0.00 0.00 0.00 39 1010.9
20260503192742 30 23 0.0 0.0 0.00 0.00 0.00 40 1011.1
20260503191740 30 281 0.0 0.0 0.00 0.00 0.00 38 1011.2
20260503191240 30 266 0.0 0.0 0.00 0.00 0.00 38 1011.2
20260503190740 30 320 0.0 0.0 0.00 0.00 0.00 37 1011.3
20260503190241 30 91 0.0 0.0 0.00 0.00 0.00 39 1011.4
20260503185740 29 134 0.0 0.0 0.00 0.00 0.00 40 1011.4
20260503185242 30 267 0.0 0.0 0.00 0.00 0.00 38 1011.5
20260503184740 29 319 0.0 0.0 0.00 0.00 0.00 38 1011.5
20260503184240 29 113 0.0 0.0 0.00 0.00 0.00 43 1011.6
20260503183740 29 333 0.0 0.0 0.00 0.00 0.00 45 1011.6
20260503183240 28 217 0.0 0.0 0.00 0.00 0.00 46 1011.6
20260503182740 28 141 0.0 0.0 0.00 0.00 0.00 45 1011.7
20260503182240 28 165 0.0 0.0 0.00 0.00 0.00 45 1011.6
20260503181741 27 242 0.0 0.0 0.00 0.00 0.00 45 1011.8
20260503181241 27 281 0.0 0.0 0.00 0.00 0.00 45 1011.8
20260503180741 27 277 0.0 0.0 0.00 0.00 0.00 50 1011.8
20260503180240 26 295 0.0 0.0 0.00 0.00 0.00 51 1011.8
20260503175741 26 110 0.0 0.0 0.00 0.00 0.00 50 1011.8
20260503175242 26 92 0.0 0.0 0.00 0.00 0.00 50 1011.8
20260503174740 26 100 0.0 0.0 0.00 0.00 0.00 51 1011.8
20260503173238 25 12 0.0 0.0 0.00 0.00 0.00 57 1011.9
20260503172738 25 12 0.0 0.0 0.00 0.00 0.00 57 1012.0
20260503172241 24 306 0.0 0.0 0.00 0.00 0.00 56 1012.0
20260503170238 23 338 0.0 0.0 0.00 0.00 0.00 60 1012.0
20260503150729 16 335 0.0 0.0 0.00 0.00 0.00 80 1012.3
20260503140227 13 25 0.0 0.0 0.00 0.00 0.00 82 1012.2
20260503131224 15 39 0.0 0.0 0.00 0.00 0.00 77 1012.0
20260503130226 15 319 0.0 0.0 0.00 0.00 0.00 78 1011.9
20260503110720 12 93 0.0 0.0 0.00 0.00 0.00 86 1012.4
20260503110220 12 94 0.0 0.0 0.00 0.00 0.00 87 1012.4
20260503100218 12 94 0.0 0.0 0.00 0.00 0.00 86 1012.7
20260503090218 12 314 0.0 0.0 0.00 0.00 0.00 88 1012.7
20260503081217 13 314 0.0 0.0 0.00 0.00 0.00 86 1012.9
20260503080714 13 314 0.0 0.0 0.00 0.00 0.00 86 1012.8
20260503072710 15 314 0.0 0.0 0.00 0.00 0.00 83 1013.0
20260503072209 15 314 0.0 0.0 0.00 0.00 0.00 82 1013.0
20260503071706 15 314 0.0 0.0 0.00 0.00 0.00 81 1013.1
20260503071205 16 312 0.0 0.0 0.00 0.00 0.00 80 1013.0
20260503070707 16 233 0.0 0.0 0.00 0.00 0.00 79 1012.9
20260503070206 16 233 0.0 0.0 0.00 0.00 0.00 78 1012.9
20260503060205 14 306 0.0 0.0 0.00 0.00 0.00 86 1013.0
20260503054205 15 305 0.0 0.0 0.00 0.00 0.00 87 1013.1
20260503053703 15 292 0.0 0.0 0.00 0.00 0.00 87 1013.2
20260503053205 15 291 0.0 0.0 0.00 0.00 0.00 87 1013.2
20260503052704 15 291 0.0 0.0 0.00 0.00 0.00 87 1013.2
20260503052203 14 291 0.0 0.0 0.00 0.00 0.00 87 1013.3
20260503051702 14 291 0.0 0.0 0.00 0.00 0.00 87 1013.3
20260503051201 14 228 0.0 0.0 0.00 0.00 0.00 86 1013.3
20260503050701 14 229 0.0 0.0 0.00 0.00 0.00 86 1013.4
20260503045201 15 229 0.0 0.0 0.00 0.00 0.00 85 1013.4
20260503044701 15 228 0.0 0.0 0.00 0.00 0.00 85 1013.5
20260503044201 15 229 0.0 0.0 0.00 0.00 0.00 84 1013.5
20260503043701 15 228 0.0 0.0 0.00 0.00 0.00 85 1013.4
20260503043204 15 228 0.0 0.0 0.00 0.00 0.00 84 1013.4
20260503042202 15 228 0.0 0.0 0.00 0.00 0.00 84 1013.4
20260503041659 15 229 0.0 0.0 0.00 0.00 0.00 83 1013.4
20260503041159 15 229 0.0 0.0 0.00 0.00 0.00 84 1013.2
20260503040700 15 224 0.0 0.0 0.00 0.00 0.00 83 1013.2
20260503040159 15 224 0.0 0.0 0.00 0.00 0.00 83 1013.3
20260503035701 16 266 0.0 0.0 0.00 0.00 0.00 83 1013.2
20260503035159 16 298 0.0 0.0 0.00 0.00 0.00 82 1013.0
20260503034659 16 298 0.0 0.0 0.00 0.00 0.00 82 1013.1
20260503034157 16 298 0.0 0.0 0.00 0.00 0.00 82 1013.1
20260503033657 16 298 0.0 0.0 0.00 0.00 0.00 82 1013.1
20260503033156 16 298 0.0 0.0 0.00 0.00 0.00 81 1013.1
20260503032652 17 298 0.0 0.0 0.00 0.00 0.00 81 1013.1
20260503032155 17 313 0.0 0.0 0.00 0.00 0.00 81 1013.0
20260503031655 17 314 0.0 0.0 0.00 0.00 0.00 80 1013.0
20260503031152 17 313 0.0 0.0 0.00 0.00 0.00 80 1013.0
20260503030652 17 247 0.0 0.0 0.00 0.00 0.00 79 1013.0
20260503025652 18 247 0.0 0.0 0.00 0.00 0.00 78 1012.8
20260503025151 18 247 0.0 0.0 0.00 0.00 0.00 78 1012.8
20260503024149 18 297 0.0 0.0 0.00 0.00 0.00 78 1012.6
20260503023155 19 128 0.0 0.0 0.00 0.00 0.00 74 1012.3
20260503022653 20 217 0.0 0.0 0.00 0.00 0.00 72 1012.0
20260503022150 20 217 0.0 0.0 0.00 0.00 0.00 71 1011.8
20260503021649 20 217 0.0 0.0 0.00 0.00 0.00 70 1011.7
20260503021151 20 217 0.0 0.0 0.00 0.00 0.00 70 1011.6
20260503020648 20 217 0.0 0.0 0.00 0.00 0.00 69 1011.6
20260503020149 21 149 0.0 0.0 0.00 0.00 0.00 69 1011.6
20260503015148 21 271 0.0 0.0 0.00 0.00 0.00 67 1011.5
20260503014647 21 294 0.0 0.0 0.00 0.00 0.00 67 1011.4
20260503014149 21 294 0.0 0.0 0.00 0.00 0.00 68 1011.4
20260503013647 21 294 0.0 0.0 0.00 0.00 0.00 67 1011.5
20260503013148 22 294 0.0 0.0 0.00 0.00 0.00 66 1011.5
20260503012646 22 293 0.0 0.0 0.00 0.00 0.00 66 1011.6
20260503012145 22 293 0.0 0.0 0.00 0.00 0.00 64 1011.5
20260503011646 22 293 0.0 0.0 0.00 0.00 0.00 65 1011.5
20260503011145 22 278 0.0 0.0 0.00 0.00 0.00 65 1011.5
20260503010645 22 278 0.0 0.0 0.00 0.00 0.00 66 1011.5
20260503005645 22 284 0.0 0.0 0.00 0.00 0.00 66 1011.5
20260503005144 22 284 0.0 0.0 0.00 0.00 0.00 66 1011.5
20260503004648 22 136 0.0 0.0 0.00 0.00 0.00 64 1011.6
20260503004143 22 307 0.0 0.0 0.00 0.00 0.00 66 1011.7
20260503002645 22 288 0.0 0.0 0.00 0.00 0.00 64 1011.6
20260503002142 22 302 0.0 0.0 0.00 0.00 0.00 65 1011.6
20260503001640 22 298 0.0 0.0 0.00 0.00 0.00 63 1011.7
20260503001143 22 306 0.0 0.0 0.00 0.00 0.00 64 1011.7
20260503000640 22 302 0.0 0.0 0.00 0.00 0.00 63 1011.8
20260502235642 22 300 0.0 0.0 0.00 0.00 0.00 64 1011.9
20260502235141 22 295 0.0 0.0 0.00 0.00 0.00 63 1011.9
20260502234642 21 326 0.0 0.0 0.00 0.00 0.00 64 1012.0
20260502234139 21 318 0.0 0.0 0.00 0.00 0.00 63 1012.1
20260502232639 22 302 0.0 0.0 0.00 0.00 0.00 63 1012.3
20260502232138 22 150 0.0 0.0 0.00 0.00 0.00 64 1012.3
20260502231638 21 272 0.0 0.0 0.00 0.00 0.00 63 1012.4
20260502231138 21 333 0.0 0.0 0.00 0.00 0.00 65 1012.4
20260502230639 21 325 0.0 0.0 0.00 0.00 0.00 64 1012.4